Simultaneous Nadir Overpasses (SNOs) Predictions

Prediction of SNOs between AQUA and NPP Satellite Orbit:

Table of predicted SNOs for the next 14.0 days since TLE Epoch: 6/24/2023
Index Date (AQUA) Time (AQUA) Lat,Lon (AQUA) SZA (AQUA ) Date (NPP) Time (NPP) Lat,Lon (NPP) SZA (NPP ) Distance(km) Time Diff (sec)
1 06/26/2023 10:41:41 -80.54, 107.46 112.55 06/26/2023 10:41:00 -80.53, 107.43 112.52 0.55 41
2 06/26/2023 11:31:03 80.60, -84.19 67.33 06/26/2023 11:31:42 80.60, -84.36 67.33 3.15 39
3 06/29/2023 01:16:37 -80.57,-110.85 112.50 06/29/2023 01:16:24 -80.57,-110.90 112.48 0.97 13
4 06/29/2023 02:05:58 80.66, 57.81 67.34 06/29/2023 02:07:05 80.65, 57.64 67.32 3.07 67
5 07/01/2023 15:02:10 80.55,-137.44 67.71 07/01/2023 15:01:06 80.55,-137.37 67.75 1.14 64
6 07/01/2023 15:51:33 -80.61, 30.85 112.40 07/01/2023 15:51:49 -80.60, 30.71 112.39 2.48 16
7 07/04/2023 05:37:06 80.56, 3.92 67.92 07/04/2023 05:36:32 80.56, 3.85 67.95 1.26 34
8 07/04/2023 06:26:27 -80.67, 172.89 112.31 07/04/2023 06:27:12 -80.68, 172.96 112.35 1.42 45
9 07/06/2023 20:11:58 80.65, 146.27 67.99 07/06/2023 20:11:54 80.65, 146.37 67.98 1.82 4



Historial Predications of SNOs between AQUA and NPP
